BEIDOU-2 G7 (41586 NORAD) Tracking and Keplerian Element Data

This shows tracking and keplerian element data for the satellite.

Feedback or suggestion? Click here.




ElementValue
Catalog41586
NameBEIDOU-2 G7
Epoch Orbit1092
Epoch Day146.50790111
Epoch Year2019
RAAN38.4139
Inclination0.8615
Eccentricity0.0008611
Argument of Perigee11.2322
Mean Anonmoly127.5294
Mean Motion1.00272713
Decay Rate-3.56E-06
L11 41586U 16037A 19146.50790111 -.00000356 00000-0 00000+0 0 9990
L22 41586 0.8615 38.4139 0008611 11.2322 127.5294 1.00272713 10926

Live tracking and technical data element details for BEIDOU-2 G7 (NORAD 41586). BEIDOU-2 G7 can be tracked NOW for your location showing map with azimuth and elevation plus other details from your city location.

Track the satellite on the map from your city or location and see movement details for azimuth, elevation, latitude, longitude, range, height, and movement on the map or in text.







IsCatalogInMostPopularTable: catalog: 41586, numindb: 222
Update: records affected: 1



GetName: 41586 BEIDOU-2 G7

Hit Count: updated at: Mon, 27 May 2019 03:55:45 GMT